Theta_e
310 310 311 311 311 310 310 309 308 307 307 306 305 307 308 310 304 301 310 313 311 312 314 317 319 321 322 322 323 323 324 324 326 333 336 340 344 348 347 348 351 352 350 356 357 356 357 357 357 357 356 356 358 357 355 355 349 349 355 357 357 356 361 366 368 371 373 372 370 369 366 366 363 362 361 359 356 355 358 355 351 349 350 350 351 350 350
309 310 310 311 309 309 309 309 309 309 308 307 306 306 308 307 309 310 310 313 311 313 315 316 318 321 323 323 324 325 325 323 328 326 327 325 328 339 347 349 349 353 354 356 359 359 361 358 358 356 357 359 356 356 356 354 354 351 356 360 363 360 361 367 370 372 372 372 371 370 367 365 365 364 360 358 355 356 356 355 353 351 353 352 349 346 345
308 310 311 310 310 309 308 309 310 310 310 309 308 307 307 309 308 308 308 311 311 316 319 318 320 322 322 324 323 322 325 324 323 324 323 324 325 327 334 354 351 354 356 358 360 360 360 358 358 358 359 359 358 356 356 356 356 353 354 364 362 363 367 370 372 373 372 370 369 368 366 365 365 364 362 360 360 361 358 355 353 353 351 347 347 346 348
306 310 310 311 310 309 308 307 309 309 309 308 309 307 309 307 307 308 307 306 307 313 317 320 321 321 321 320 322 324 323 323 325 325 324 325 327 327 328 332 350 355 356 359 360 359 358 357 359 360 361 359 357 355 357 356 356 355 357 361 362 368 368 371 372 371 370 369 368 367 366 365 364 363 362 361 359 357 355 353 352 352 347 350 349 346 344
305 309 310 309 309 308 304 305 307 309 310 311 311 311 312 310 309 306 304 306 312 315 317 316 318 320 320 321 320 322 325 332 326 326 325 325 325 328 339 339 350 354 355 357 362 360 359 357 359 360 361 358 358 358 360 360 360 356 357 361 367 368 369 371 372 371 370 368 368 365 364 363 363 363 362 360 359 357 355 354 353 352 351 348 344 343 342
304 308 309 310 306 298 300 310 314 312 309 310 309 309 310 312 312 310 312 312 315 315 315 314 316 317 320 322 326 326 326 327 330 326 326 325 325 326 326 330 345 356 357 357 361 362 361 360 360 361 364 360 360 359 360 361 359 361 364 365 367 368 370 371 371 370 368 368 367 365 363 362 361 359 359 358 357 356 355 355 355 353 350 347 345 344 341
305 309 310 304 298 299 312 314 315 315 313 313 311 312 312 313 315 314 313 313 314 316 316 317 317 320 320 321 322 323 324 327 325 326 324 327 328 329 329 335 331 354 360 359 363 363 360 358 360 361 361 361 362 358 360 359 363 367 364 365 368 370 370 370 371 369 367 367 366 364 363 360 358 357 357 358 357 355 353 352 353 350 348 346 344 342 339
310 308 305 296 298 311 313 314 315 316 315 314 312 310 312 314 314 315 314 315 315 317 317 318 320 321 319 319 323 325 324 323 323 322 323 325 326 326 327 342 353 361 355 358 360 362 361 358 359 359 360 359 359 356 359 361 361 362 365 366 368 370 369 369 369 369 367 366 366 364 360 358 357 356 356 357 356 355 353 352 352 349 347 345 342 341 340
302 304 304 303 311 309 311 311 313 313 311 312 310 306 310 315 316 316 315 316 317 317 317 317 319 321 320 320 320 322 321 322 323 323 324 323 327 327 330 335 338 354 362 361 361 364 359 358 359 358 359 359 357 356 359 360 363 361 363 366 368 370 369 369 369 369 367 365 364 362 359 357 356 355 355 355 354 355 353 350 348 346 346 342 343 341 340
308 303 302 302 301 299 306 316 320 320 319 319 319 316 309 316 317 318 317 316 317 318 318 318 319 321 318 315 317 321 322 323 324 324 324 324 325 326 325 341 338 355 361 360 361 360 358 356 358 360 360 359 358 359 360 361 362 362 363 364 368 370 370 371 370 370 368 366 364 361 360 358 356 353 354 353 352 354 351 349 347 346 344 342 342 342 340
306 304 301 300 299 304 317 317 318 320 321 319 319 312 306 316 317 318 317 316 317 317 317 318 320 316 312 312 318 324 325 325 325 324 323 322 323 326 328 335 345 358 360 359 360 361 358 356 359 361 360 360 359 359 361 360 361 362 363 365 368 369 370 371 370 369 368 366 365 362 360 358 354 353 353 353 352 352 349 349 348 349 346 344 341 339 337
305 304 301 300 305 306 315 318 317 318 321 319 314 301 303 316 329 331 330 328 328 328 320 319 318 315 311 312 319 323 326 327 329 330 331 332 331 330 333 344 357 360 363 362 360 355 355 359 361 364 359 361 360 359 358 360 360 361 363 366 368 371 371 371 370 368 366 365 364 363 360 358 355 354 354 351 350 348 348 347 346 345 344 342 340 337 336
303 302 304 306 309 318 319 318 319 320 320 316 306 299 312 324 328 328 329 327 327 330 329 324 315 319 320 321 325 325 326 325 327 327 329 333 334 333 336 346 355 357 356 357 356 354 358 364 360 362 359 357 359 360 361 361 360 361 365 368 370 371 370 368 367 366 365 365 363 363 361 358 354 352 351 349 348 347 345 345 344 343 340 339 338 336 335
302 304 302 303 308 319 320 321 320 322 315 304 303 320 327 327 325 329 328 327 331 330 331 332 323 320 322 323 323 325 332 334 338 337 336 337 336 338 344 352 354 355 351 357 356 355 361 361 359 356 361 361 360 360 359 359 362 363 368 370 370 369 368 367 365 363 363 363 363 360 360 358 355 352 352 351 348 346 344 343 342 340 340 338 338 336 336
305 306 303 300 295 316 321 321 318 321 312 314 323 325 326 324 325 327 328 329 330 331 329 332 333 332 321 321 322 325 332 338 339 339 340 341 341 346 352 352 354 352 353 352 352 354 353 352 355 358 362 362 361 361 361 363 365 368 369 369 368 367 366 364 362 361 361 361 359 359 355 355 354 351 352 350 350 347 345 342 340 338 337 338 339 339 338
301 301 299 300 311 320 321 319 313 323 322 322 325 324 322 326 327 328 329 330 334 333 331 330 332 332 330 327 328 331 338 342 342 342 345 349 353 352 350 350 350 349 349 350 352 355 354 360 364 366 366 363 363 364 365 368 368 368 368 368 367 364 363 362 360 359 358 358 360 358 356 353 351 351 349 349 347 345 343 341 338 338 338 339 338 337 337
307 305 307 320 321 321 321 322 321 322 324 326 326 327 327 327 328 332 329 330 333 334 334 332 333 330 330 333 336 338 340 342 343 346 348 349 348 347 348 348 355 355 356 357 355 359 360 364 364 365 366 364 363 362 363 364 363 364 364 364 362 360 359 359 358 357 356 356 356 355 353 352 352 350 349 347 344 343 342 339 338 338 339 340 339 339 338
320 320 321 321 321 320 321 322 323 323 323 326 328 328 329 329 331 331 330 330 332 334 337 334 335 334 333 334 332 337 336 339 343 345 345 346 347 349 350 351 352 352 353 355 355 354 355 356 359 361 364 364 361 360 362 361 362 362 360 358 356 355 355 355 354 354 352 352 353 353 352 351 351 350 347 344 342 341 340 339 339 338 339 339 339 339 339
310 304 317 318 319 321 321 321 322 324 324 325 327 329 330 330 331 331 331 333 333 332 333 335 333 331 332 331 337 340 341 340 340 340 343 345 346 347 347 349 350 349 348 347 347 349 350 353 354 355 359 360 361 361 360 359 360 360 357 354 352 352 353 353 353 353 351 349 349 349 350 349 348 347 345 343 341 339 340 339 340 340 340 339 338 337 337
311 313 317 318 321 322 322 322 321 320 322 324 327 328 328 329 330 332 332 332 332 333 333 335 336 335 337 337 338 338 339 341 344 345 345 343 342 345 346 345 344 343 342 343 344 345 346 349 352 353 353 355 357 357 355 355 355 355 353 353 352 353 352 351 349 349 349 349 348 347 346 344 343 344 343 341 339 339 340 340 340 339 339 338 337 339 337
315 318 318 319 321 320 320 321 322 323 323 323 323 324 325 325 327 328 330 332 335 334 334 335 333 332 333 335 336 333 334 335 336 338 341 346 351 352 349 348 349 349 349 347 347 345 345 346 346 345 345 346 348 350 352 355 357 355 352 350 353 351 349 348 346 347 347 345 345 344 343 336 326 321 329 343 341 338 325 326 332 341 341 338 339 338 338
308 310 316 316 311 311 318 319 320 321 322 322 321 322 321 322 324 325 324 325 327 329 333 334 335 334 335 337 338 337 338 338 340 340 339 341 343 346 349 350 352 352 352 351 349 348 348 348 347 347 347 348 350 350 352 354 356 355 353 352 351 347 346 345 345 344 343 342 343 342 341 337 328 320 305 298 308 334 327 312 304 300 309 335 335 338 338
310 319 320 322 321 319 319 321 322 323 322 321 319 319 320 320 321 321 321 321 322 323 324 327 328 330 332 335 335 335 337 338 340 339 340 339 339 340 342 343 345 347 348 349 348 347 347 347 346 345 346 346 349 349 352 355 354 354 353 350 347 345 344 342 341 343 341 342 342 343 341 339 338 334 329 318 297 295 304 305 299 296 296 297 301 311 337
317 320 320 321 320 316 317 319 321 322 323 320 318 319 320 319 320 321 320 320 320 321 323 323 324 324 326 328 330 332 334 335 337 338 339 339 340 341 343 345 345 346 346 347 347 346 346 346 345 346 345 347 350 351 353 353 354 354 353 348 345 343 343 342 343 345 343 343 343 342 340 339 338 337 335 330 323 301 295 299 298 295 295 295 296 300 304
317 320 320 320 318 318 319 320 320 321 321 320 318 318 319 319 320 320 320 319 319 319 319 321 323 323 322 322 325 327 329 330 333 335 336 337 336 337 337 340 343 344 344 344 346 348 348 348 347 347 347 349 351 352 354 353 353 352 351 348 343 341 342 343 342 344 342 342 342 341 339 338 336 337 335 333 326 321 312 296 296 296 295 295 295 296 297
320 320 319 319 319 318 319 318 317 317 318 319 317 317 319 321 321 321 320 321 319 317 316 315 316 320 323 321 322 324 326 327 330 331 333 333 334 335 336 337 340 343 344 345 345 346 346 347 347 347 348 349 351 351 349 350 350 350 348 346 344 342 340 340 340 341 340 341 340 341 339 338 337 337 336 335 331 327 323 322 321 309 299 295 295 297 293
320 319 318 317 316 317 318 316 314 316 316 315 315 315 317 318 320 320 320 320 320 320 318 316 316 316 317 321 323 322 322 325 329 330 330 330 332 334 335 338 340 341 341 343 344 345 345 347 347 347 347 347 350 349 348 348 348 347 346 346 345 343 344 343 341 340 339 341 339 338 337 338 338 336 336 335 334 331 329 326 325 325 325 320 303 295 308
316 317 318 314 313 315 317 320 319 317 316 316 315 315 315 313 314 316 315 316 317 318 318 318 317 317 316 317 320 321 322 322 323 327 331 330 329 331 336 338 338 340 340 342 343 344 344 345 345 345 346 348 349 348 347 347 347 346 345 345 343 341 342 341 341 340 339 340 339 338 338 338 339 337 336 334 332 331 328 327 326 327 327 324 315 300 295
312 314 317 317 316 316 318 319 319 319 317 316 317 319 317 312 313 314 315 315 316 317 318 318 318 318 318 318 318 318 319 321 323 324 328 332 334 332 332 335 336 337 340 340 342 344 344 344 343 343 344 347 347 346 346 347 346 345 343 341 341 341 340 340 339 340 340 341 341 340 334 336 337 338 336 335 333 332 329 327 329 330 326 321 318 313 309
310 313 315 316 317 317 317 316 315 317 316 316 316 318 318 316 313 311 311 314 317 317 318 318 318 319 319 318 320 320 318 319 323 324 327 330 333 336 336 337 335 337 339 339 340 341 341 340 340 340 341 343 343 345 344 345 344 342 340 339 338 338 339 340 340 341 341 340 338 333 337 336 337 338 335 335 334 330 329 330 330 328 326 324 319 322 319
310 311 311 312 313 314 313 313 315 315 315 316 316 315 314 315 315 313 312 314 313 313 316 318 319 318 318 317 319 319 318 319 323 324 327 329 334 335 336 339 335 331 334 336 338 337 337 336 336 337 341 341 342 342 343 341 340 339 340 340 340 329 327 330 331 336 336 337 335 336 335 335 334 334 332 331 331 330 330 331 331 329 326 325 324 322 319
309 309 309 309 311 312 314 315 314 314 314 316 316 314 314 314 313 313 316 316 317 317 317 319 317 318 320 321 322 321 320 321 323 324 328 326 329 335 337 336 335 335 336 337 337 340 337 337 336 338 339 340 340 341 341 340 340 337 336 337 336 337 332 328 332 332 334 333 332 333 332 332 332 332 332 333 331 331 333 332 331 330 327 325 324 324 321
310 308 308 310 311 311 313 315 314 314 314 313 314 315 316 316 315 315 315 316 315 317 319 320 321 320 321 321 321 321 322 322 322 327 327 330 331 333 336 338 339 338 338 338 337 338 336 335 336 338 337 337 337 337 335 336 335 333 334 334 335 334 332 328 329 332 333 331 330 332 331 331 332 331 331 330 330 329 331 331 330 330 328 328 328 327 322
310 309 310 311 312 311 311 312 314 315 316 315 314 314 315 315 315 316 317 317 316 317 317 319 320 321 321 321 321 320 320 319 321 324 326 327 328 331 333 334 336 336 336 337 336 335 335 337 338 339 338 337 336 335 335 334 335 335 335 335 335 331 329 331 330 332 330 329 332 333 333 332 331 331 333 330 330 330 330 330 329 329 330 329 330 328 316
313 314 316 316 315 315 316 315 313 313 313 313 313 314 314 315 316 316 318 317 317 317 319 321 321 321 321 320 321 321 321 322 323 323 325 326 327 330 331 331 332 332 334 337 338 337 338 338 338 337 337 335 335 333 334 334 333 334 336 335 335 333 332 331 332 332 332 331 331 331 330 329 330 330 329 329 329 331 329 329 328 328 329 328 327 327 319
314 314 315 315 316 316 316 315 314 314 314 313 314 313 314 315 315 316 316 316 318 318 318 319 320 319 319 319 320 320 321 321 323 323 324 325 327 328 329 328 329 330 331 332 334 336 337 337 336 334 334 333 332 331 332 332 333 333 335 333 333 330 330 329 329 330 329 329 328 329 330 331 330 329 330 329 329 328 326 326 325 326 326 326 327 325 323
316 315 315 315 316 317 316 316 315 314 314 314 314 314 315 316 316 318 318 317 318 319 320 319 319 317 318 320 320 321 322 323 322 323 323 325 326 327 327 329 328 328 329 327 330 332 335 335 337 335 332 330 333 335 338 336 335 333 332 330 330 329 329 329 330 330 330 332 331 332 329 329 329 329 327 327 325 325 324 325 326 327 326 326 325 324 323
316 316 315 315 315 315 315 315 316 316 314 314 315 316 317 317 318 318 317 318 318 320 321 320 320 320 320 321 321 319 321 322 323 325 326 327 327 327 327 326 325 327 326 328 332 332 332 333 332 332 333 333 336 335 334 337 335 331 330 329 328 328 328 328 329 329 329 329 328 328 326 325 325 324 324 325 326 325 324 325 325 326 325 325 326 325 324
315 316 315 315 315 316 316 316 316 317 315 315 316 316 317 318 318 318 318 319 320 321 319 321 321 321 321 320 319 320 321 321 322 323 325 326 328 327 326 328 328 329 329 331 331 330 332 332 333 332 331 330 331 329 330 329 329 329 329 330 330 329 330 328 327 326 328 327 325 325 327 325 324 325 325 323 325 323 324 322 323 322 323 322 322 321 322
314 315 316 315 315 315 315 315 315 317 316 317 317 317 317 318 318 318 318 320 321 323 322 321 320 320 320 320 321 320 322 324 324 324 325 326 327 327 326 327 329 330 330 329 331 330 330 332 334 335 332 330 330 328 329 328 327 328 328 327 327 325 326 326 326 325 324 325 324 323 322 322 322 323 321 323 321 321 322 319 317 317 318 319 319 319 318
315 315 316 316 316 316 315 315 315 316 317 317 317 319 320 319 319 319 318 319 321 323 323 322 321 321 320 320 321 321 323 324 325 325 326 325 324 323 322 324 328 330 330 331 333 331 330 329 330 332 333 332 332 331 329 328 327 328 329 327 325 325 324 323 323 323 322 322 321 319 321 320 320 319 319 317 318 318 318 318 318 318 318 318 317 317 316
315 316 315 315 316 316 317 317 316 316 316 317 318 319 319 319 319 318 320 320 321 322 322 323 322 323 322 322 322 322 322 323 324 325 325 325 324 322 321 324 330 332 330 329 330 330 329 329 329 329 332 332 331 328 327 329 327 327 325 325 325 324 323 324 323 322 322 320 320 320 319 319 317 317 318 318 318 318 318 319 317 318 318 318 316 317 317
315 315 315 315 316 317 316 317 316 316 317 317 317 319 319 320 319 320 319 320 320 320 320 322 322 321 322 322 321 321 321 322 323 323 323 324 328 329 328 328 332 333 330 332 333 331 330 329 329 330 330 329 328 327 326 327 326 325 325 325 324 324 323 322 321 321 321 320 320 319 318 318 319 318 317 317 317 316 316 315 314 315 315 316 315 316 318
314 314 315 315 314 316 316 315 316 317 316 316 318 319 319 319 319 319 319 319 319 319 319 319 319 320 320 321 320 319 320 321 322 323 323 324 325 327 330 329 329 330 329 328 328 328 328 328 330 329 329 328 327 326 326 325 323 324 323 323 322 322 321 321 320 319 319 320 319 320 318 318 317 316 316 315 314 314 314 313 313 313 313 313 313 312 312
315 315 315 314 316 316 315 315 316 316 316 316 316 317 318 317 317 318 318 319 318 319 319 319 318 318 318 319 320 321 321 321 321 321 320 320 321 322 328 328 328 327 326 328 327 327 329 328 328 327 327 326 324 326 325 324 322 321 321 320 320 320 320 319 319 319 318 318 318 317 317 315 316 315 315 314 315 313 313 313 314 313 312 312 312 311 312
314 315 315 315 314 315 316 316 316 316 315 315 314 315 317 318 316 317 318 318 318 317 318 317 318 317 317 317 319 320 321 321 321 323 323 321 319 322 326 327 327 326 324 326 325 326 326 327 326 325 324 325 323 324 323 322 321 319 319 318 318 318 317 317 317 318 317 317 316 316 316 316 315 315 315 315 315 314 314 312 312 312 313 312 312 312 312
314 314 315 315 315 316 316 316 315 314 313 313 312 312 315 316 316 316 317 317 317 317 316 316 316 317 318 318 316 314 314 317 318 318 321 321 323 324 325 325 325 325 325 327 327 326 325 324 324 323 325 323 324 324 322 321 320 319 317 317 317 316 316 317 317 318 316 316 316 317 318 316 316 316 316 314 313 313 314 314 312 313 313 312 312 311 310
314 314 314 315 315 315 316 316 314 312 312 311 312 313 313 315 316 315 316 316 316 315 315 315 316 316 317 316 318 317 315 315 313 315 317 320 319 323 322 321 321 325 323 324 324 326 327 328 325 324 323 322 321 321 322 321 319 318 317 317 318 317 316 316 316 316 316 316 315 318 315 315 315 315 315 314 314 314 314 313 313 313 312 312 311 312 311
315 315 314 314 315 314 314 313 312 312 312 313 314 313 315 314 315 313 314 315 314 314 314 315 315 315 317 316 316 315 316 318 317 313 316 318 318 319 319 324 324 324 322 323 324 326 326 321 322 324 323 326 321 321 321 321 320 318 317 317 317 317 318 317 317 317 317 316 316 315 316 315 316 317 315 315 314 314 313 313 313 313 312 312 311 311 310
316 315 314 314 313 312 313 313 311 312 314 314 313 313 315 314 311 312 312 312 314 312 312 312 314 315 315 314 314 316 316 317 317 318 316 319 319 320 318 318 319 319 318 319 320 325 326 323 320 323 323 323 321 322 321 321 321 319 319 319 319 318 319 317 313 314 316 318 316 315 315 315 315 314 315 314 313 313 314 313 315 311 306 309 311 311 310
317 316 314 314 314 315 315 315 314 314 315 313 314 313 313 312 310 314 314 312 313 312 311 312 313 314 313 314 314 315 316 316 316 317 316 316 317 315 317 317 317 318 319 317 317 318 324 325 325 324 323 322 321 321 321 320 320 319 320 319 318 317 317 318 316 317 317 317 316 316 316 315 316 316 315 315 314 314 314 313 313 313 313 312 312 313 311
314 316 321 315 313 313 314 314 315 315 315 314 314 313 314 313 312 312 314 314 313 312 313 313 311 313 314 314 315 315 316 315 315 316 316 316 315 315 316 316 316 316 317 318 318 319 319 319 321 323 324 322 322 321 323 323 320 319 319 318 319 318 317 319 316 316 317 317 316 315 315 316 315 314 315 316 314 313 314 314 314 313 313 313 313 311 311
Wind_Speed
23 24 21 17 17 19 20 19 19 21 24 26 27 25 25 22 19 20 17 18 21 20 26 24 19 17 18 18 18 20 17 15 13 9 11 11 12 13 15 15 14 14 15 14 16 17 17 19 19 19 18 17 15 15 17 17 19 19 16 16 17 17 16 16 15 16 15 14 13 14 16 17 17 17 16 15 14 14 15 16 14 16 17 18 17 16 15
20 22 24 23 22 19 20 21 21 22 23 25 27 25 24 28 22 20 19 17 21 21 23 25 25 20 18 18 17 18 19 17 13 13 13 17 17 14 12 14 15 14 15 15 16 17 17 19 19 19 17 16 18 18 17 18 16 17 14 16 15 16 16 14 14 14 14 13 13 14 15 16 15 15 16 16 16 16 16 17 14 14 15 16 17 17 16
16 18 20 23 25 22 22 22 23 25 24 23 25 26 27 26 26 27 25 21 20 16 16 20 21 23 23 16 17 19 17 18 19 18 19 17 13 11 12 12 14 14 15 15 16 18 19 19 20 18 17 17 17 19 18 19 17 17 17 15 16 15 14 14 13 13 13 13 13 15 15 15 14 14 14 14 12 11 13 14 13 12 14 15 15 15 16
15 17 19 20 21 24 25 25 25 24 24 23 23 22 22 24 21 21 24 24 20 17 18 14 16 20 25 28 23 15 15 18 15 14 15 15 13 12 12 10 13 15 17 17 18 20 21 21 20 19 17 18 18 18 18 18 18 17 16 16 16 14 14 14 13 14 13 13 13 14 14 14 14 13 12 11 10 10 10 12 11 12 13 14 14 13 13
16 17 20 22 22 19 21 24 26 27 25 23 23 22 21 22 23 21 20 19 16 14 15 19 17 19 21 23 24 25 20 14 15 14 15 16 15 12 8 10 12 15 17 19 20 21 21 20 20 21 19 19 18 17 16 15 15 17 17 17 15 14 14 14 14 13 13 14 14 13 14 13 12 12 11 10 10 11 12 12 11 11 12 13 13 13 13
12 16 18 16 15 18 19 18 22 24 25 26 27 24 23 24 23 17 17 17 17 19 20 22 21 21 20 20 20 19 17 15 18 21 17 17 18 17 16 11 13 16 15 15 17 20 20 20 20 18 18 17 16 16 16 15 16 14 14 15 15 15 14 14 14 13 14 14 14 13 12 11 11 12 12 12 12 11 11 11 11 11 12 12 11 12 11
12 11 13 15 19 19 13 15 16 19 23 26 27 27 26 26 23 25 25 22 20 19 18 21 21 19 20 21 22 22 21 21 23 21 21 18 18 18 15 12 14 13 14 15 16 17 19 19 18 17 17 16 16 16 16 16 14 13 14 15 14 14 14 13 13 13 14 14 14 13 12 12 10 11 12 11 11 10 10 11 10 10 12 12 11 11 12
10 11 10 11 16 10 12 11 14 17 19 21 25 28 27 24 24 24 24 22 21 20 20 18 18 20 23 22 21 22 24 23 22 24 22 20 20 21 18 6 2 8 14 17 19 19 17 18 18 18 17 17 17 17 16 16 15 14 14 14 14 13 13 13 13 13 14 13 13 13 13 12 12 13 12 11 11 10 9 9 9 10 10 11 11 12 12
12 11 12 14 9 13 12 14 14 10 10 12 11 11 13 19 20 22 22 22 20 21 22 21 19 16 16 18 17 24 24 23 25 26 24 23 23 23 17 14 14 11 14 16 15 15 16 18 19 18 17 17 17 17 17 16 15 15 15 14 14 14 13 14 14 13 13 14 14 14 13 13 12 11 9 10 11 10 10 9 10 11 11 12 12 12 13
10 10 12 10 13 16 12 4 6 2 4 7 7 6 13 12 16 20 21 20 21 22 18 18 18 14 14 15 15 19 23 22 25 26 27 25 25 24 21 14 13 14 16 15 16 18 19 19 19 17 18 17 16 16 16 16 16 15 15 14 13 13 13 13 13 13 13 13 13 13 13 13 11 10 10 9 9 9 11 11 10 10 11 11 11 11 12
10 12 12 12 13 10 3 4 6 6 8 5 6 6 12 9 16 16 19 19 20 21 20 19 16 14 16 16 15 14 18 19 19 20 20 21 21 20 14 11 17 19 17 16 18 18 18 19 19 18 19 19 17 16 15 16 16 15 15 14 13 13 12 12 12 12 12 12 12 12 12 12 11 10 10 9 8 9 10 10 10 9 10 10 10 10 12
13 12 13 14 9 7 8 5 4 2 1 6 3 12 13 3 11 13 13 13 14 15 19 19 18 17 18 17 13 11 14 15 17 16 17 19 19 15 11 13 14 15 15 14 16 18 20 18 19 18 18 17 16 15 16 15 15 14 14 13 12 12 11 12 12 11 11 11 11 12 12 11 10 9 9 9 9 9 9 8 9 10 9 9 9 8 8
14 15 12 10 10 2 7 5 3 5 3 5 7 10 2 10 13 13 13 14 13 11 13 14 16 15 17 14 12 16 14 19 19 14 8 6 9 11 13 13 14 13 14 15 17 18 15 15 17 17 16 16 16 14 13 13 14 13 12 12 12 12 11 12 12 11 10 11 11 11 11 10 10 10 9 9 9 8 8 7 6 6 8 10 10 9 10
17 15 14 12 9 6 5 2 4 3 4 5 12 3 3 8 12 13 14 15 14 12 12 9 12 16 20 20 19 12 4 4 7 4 6 7 8 9 9 12 13 13 13 14 14 16 14 15 15 15 14 14 14 14 13 13 13 12 12 12 11 11 11 11 11 10 10 10 10 9 9 9 9 8 9 9 9 10 8 6 5 7 8 9 9 9 10
13 11 13 11 12 7 10 5 7 3 9 1 4 7 8 10 11 11 13 12 13 13 12 9 10 16 23 20 17 9 6 3 4 4 6 8 9 11 13 14 13 14 13 15 16 16 16 17 14 14 17 17 15 14 14 13 12 13 12 12 12 11 11 10 10 10 9 11 9 8 9 9 10 10 8 9 9 9 7 6 7 9 9 9 9 9 8
13 14 14 8 5 7 6 5 6 4 3 6 6 6 8 7 7 8 9 10 10 12 13 11 10 10 12 5 5 7 7 7 7 7 8 9 10 10 11 12 13 15 14 14 15 16 15 14 15 15 16 16 15 16 15 12 12 12 11 11 11 10 10 10 9 9 9 9 9 9 10 10 10 10 9 8 7 8 8 7 9 9 9 9 8 9 9
12 9 5 7 7 8 5 6 7 4 2 1 3 5 5 5 4 6 7 9 10 10 11 9 7 7 2 5 3 4 6 8 9 10 9 10 10 11 12 13 14 15 16 18 17 17 16 17 15 14 15 17 18 16 13 12 12 11 11 11 10 10 9 9 9 9 10 8 8 8 9 8 9 9 9 9 8 8 8 8 8 7 8 8 9 9 9
8 13 10 6 5 7 8 8 7 6 7 5 2 4 4 4 4 5 6 7 5 6 6 4 4 4 2 5 4 8 8 8 10 10 11 11 12 13 14 15 15 16 18 18 18 18 16 16 14 13 14 15 16 15 13 12 12 12 12 11 10 9 8 7 7 8 9 10 9 8 9 7 8 8 9 9 8 7 7 8 8 9 9 9 9 7 6
5 3 3 6 7 9 11 11 10 10 8 8 7 6 5 7 8 5 8 6 6 6 1 3 4 7 12 13 9 9 11 12 13 14 14 14 14 15 16 17 17 17 18 17 18 18 18 16 15 14 14 12 12 12 12 12 12 12 12 11 10 10 10 9 8 7 7 7 7 8 7 7 7 8 9 7 7 7 8 9 10 10 10 9 8 7 7
1 4 5 10 11 11 11 8 8 10 12 14 11 10 10 12 12 8 6 7 9 8 9 12 12 14 14 13 11 11 12 12 12 13 14 14 14 14 14 15 16 17 17 17 18 17 15 14 13 14 13 12 11 11 11 11 11 11 12 12 13 12 12 10 8 7 6 7 8 8 7 7 7 8 9 8 8 8 9 9 9 9 9 8 7 7 8
3 13 7 10 13 15 15 14 12 10 12 15 19 19 13 11 12 14 14 12 10 11 13 12 12 12 12 12 12 14 13 14 13 13 13 13 14 13 14 14 14 14 15 17 17 17 15 14 14 13 14 13 13 12 11 11 11 11 10 11 11 13 12 11 10 8 7 8 7 7 7 7 9 8 4 2 6 5 9 6 5 2 4 5 5 5 7
4 4 8 11 7 7 9 13 12 12 15 18 19 18 19 17 13 12 15 17 16 15 14 14 13 15 13 15 15 17 15 14 13 12 13 13 14 14 13 14 16 16 16 16 16 16 14 13 13 13 13 12 12 13 12 11 11 11 11 10 11 11 10 9 10 9 7 8 8 8 8 8 7 7 10 13 10 4 6 6 9 10 11 4 2 4 7
2 3 7 10 13 13 8 8 10 11 14 19 20 19 18 17 17 17 16 16 16 18 18 16 17 16 16 17 18 18 16 14 13 13 13 13 13 14 15 15 16 16 15 15 16 15 13 12 12 12 11 10 10 11 10 10 10 11 10 9 9 9 9 9 10 10 9 9 8 8 7 9 8 8 7 9 14 14 10 8 10 12 11 10 12 10 6
8 1 6 8 8 10 9 9 10 12 13 17 20 19 17 17 17 17 18 18 18 16 17 19 19 18 18 18 18 18 16 15 14 15 14 14 14 14 14 14 14 15 14 14 14 14 12 12 12 11 11 10 9 9 10 10 10 9 9 8 8 8 8 10 8 7 9 9 9 9 8 6 7 8 6 7 7 12 12 12 13 13 12 12 12 14 15
4 7 10 11 12 11 10 11 12 13 14 16 17 17 17 17 17 17 18 17 18 19 18 18 19 19 19 19 18 17 15 14 13 12 13 13 15 14 13 14 14 13 12 12 11 11 11 11 11 11 11 9 8 9 9 9 9 9 9 8 9 9 11 11 10 9 10 9 9 9 8 8 7 7 8 6 6 4 6 11 13 13 13 13 13 13 13
9 9 11 13 11 9 7 9 14 15 16 16 16 15 15 15 15 15 16 16 16 17 18 18 18 19 19 17 16 17 16 15 14 13 12 12 12 12 13 12 11 10 11 11 11 11 11 12 11 10 10 10 9 8 8 8 9 8 7 7 8 9 10 11 11 10 9 9 9 9 8 7 7 7 7 7 6 6 6 5 6 9 13 13 12 11 13
14 7 12 12 12 12 12 10 9 10 12 14 15 15 15 14 14 13 13 15 15 15 16 16 16 15 15 17 17 16 15 14 14 13 12 12 14 12 11 10 11 11 12 11 10 11 11 10 10 10 10 9 9 8 8 9 8 9 9 8 9 12 14 10 9 9 9 8 8 7 8 7 8 7 8 8 8 8 7 7 6 6 6 6 10 13 7
17 18 10 9 9 10 11 11 11 12 14 13 12 13 13 14 15 16 17 16 15 15 14 15 15 15 14 15 15 14 14 14 13 13 12 12 11 10 10 11 10 10 10 10 9 9 9 9 9 10 9 9 9 9 10 9 8 8 9 9 10 9 9 9 8 7 7 6 6 7 7 7 7 7 7 9 9 8 8 7 6 7 6 6 6 9 14
15 14 12 12 12 11 10 10 10 12 13 13 11 7 9 13 12 12 13 13 12 12 12 13 11 11 11 11 12 12 12 12 12 12 10 9 9 9 8 8 8 8 8 8 8 7 8 8 8 9 8 7 8 10 10 10 8 8 8 9 9 8 8 7 7 7 6 6 5 6 6 6 6 6 7 7 6 7 7 7 7 7 7 8 8 8 8
13 12 12 12 14 14 13 12 12 12 12 10 11 9 8 9 9 9 9 10 10 11 10 10 9 10 10 9 9 9 9 9 9 9 9 8 8 7 7 5 5 6 5 6 6 7 7 7 7 7 7 7 8 8 9 8 7 7 7 8 8 8 7 7 7 7 6 6 7 8 5 5 5 5 6 6 7 7 6 7 8 8 8 8 8 8 8
11 12 13 12 13 12 11 11 10 10 10 10 10 10 10 8 9 7 2 4 7 8 9 8 8 9 9 9 9 9 8 8 9 8 8 8 8 8 7 6 2 2 2 3 4 5 5 5 5 5 6 9 10 9 9 9 8 8 7 7 8 12 12 8 6 6 6 6 6 6 6 6 6 6 6 6 6 6 6 6 7 7 8 8 7 7 8
11 11 12 10 8 9 9 8 9 10 9 9 10 10 8 7 8 7 6 4 4 3 3 5 6 5 5 5 6 5 5 6 7 6 6 6 6 7 6 4 5 3 4 3 2 3 4 4 5 4 4 7 8 9 9 9 8 8 8 7 8 7 6 5 5 5 6 6 6 6 6 4 5 5 5 5 5 6 5 6 7 7 7 8 8 8 9
8 9 8 8 8 9 9 8 8 9 10 10 9 8 7 7 7 7 7 6 6 5 3 2 2 1 2 3 4 4 3 7 6 4 3 3 2 2 4 3 2 3 5 7 7 7 7 7 6 5 5 6 7 8 9 8 7 8 8 7 6 7 6 3 4 5 5 6 6 5 5 4 4 4 4 5 5 5 6 6 6 6 7 7 7 8 10
9 7 6 5 3 4 5 7 7 7 8 8 7 7 8 7 8 7 7 7 7 6 5 5 5 5 2 1 2 5 5 5 2 2 3 1 1 1 1 3 3 3 4 5 6 6 5 5 5 5 5 6 7 7 6 6 4 4 5 5 6 6 6 6 6 5 6 5 5 5 4 4 4 4 5 5 5 5 5 5 5 5 5 5 5 7 12
7 6 5 4 4 5 5 6 6 6 6 7 7 7 7 7 7 7 7 7 6 6 5 5 5 6 5 5 5 3 2 3 4 3 2 1 1 1 2 3 3 4 5 6 6 5 5 5 4 5 5 6 5 6 6 6 6 5 5 6 6 6 6 6 6 5 5 6 5 6 6 5 5 4 4 4 5 5 5 4 4 4 3 4 4 8 10
5 4 4 3 4 4 5 6 7 8 8 7 7 7 7 7 7 7 8 8 8 7 7 6 6 5 4 4 3 4 3 2 2 1 2 1 1 2 2 3 5 5 5 5 5 5 3 4 8 2 5 5 6 5 4 5 7 7 6 6 6 6 6 5 5 5 6 6 6 5 5 6 6 5 4 4 3 4 4 4 3 3 3 4 6 7 7
5 4 4 4 4 4 5 4 5 5 4 5 6 7 6 6 6 6 7 8 7 7 7 7 6 5 5 3 3 3 2 1 1 1 2 2 2 2 4 5 5 6 7 7 5 4 4 3 6 5 3 3 6 7 7 7 6 5 5 4 5 5 6 6 6 6 6 6 7 7 7 6 4 4 3 2 2 1 2 3 3 2 2 2 6 7 6
7 7 6 5 5 5 5 4 3 4 5 5 6 5 5 5 4 5 7 7 7 7 7 7 7 6 4 3 3 2 1 2 5 5 2 3 3 4 4 4 5 5 5 6 4 4 4 2 1 1 3 5 5 6 9 10 7 5 3 4 4 5 5 6 6 6 6 6 6 5 5 3 3 3 3 3 3 3 3 3 3 3 3 3 3 4 5
8 7 7 6 5 5 4 4 6 6 6 6 6 5 4 4 4 5 6 7 7 8 6 7 7 7 7 6 5 5 6 6 5 4 5 3 3 4 4 4 5 6 5 4 5 4 3 2 3 4 4 6 7 7 7 7 3 5 5 4 4 5 6 6 6 6 6 5 5 4 4 4 3 3 3 3 4 3 2 2 1 4 5 6 5 4 4
8 7 7 7 7 6 6 5 6 6 6 6 6 6 5 5 5 5 5 6 5 5 6 6 6 7 6 5 4 3 3 3 3 3 3 3 4 5 5 5 5 5 5 5 5 4 3 3 4 4 4 5 4 5 5 3 3 4 4 4 4 4 4 5 5 5 5 4 5 4 4 4 4 5 4 4 4 4 5 4 4 3 3 3 3 3 5
9 7 7 7 7 7 7 7 7 6 6 6 6 5 5 5 5 6 6 6 6 6 7 7 6 6 6 6 6 5 5 5 3 3 2 1 2 3 3 4 3 2 3 5 4 4 2 1 2 3 4 3 4 3 4 4 3 2 3 3 3 3 4 4 4 5 4 4 5 5 5 4 4 3 4 4 4 4 3 3 2 3 2 3 4 6 6
9 10 10 9 8 8 7 7 7 7 7 6 7 7 7 7 6 7 7 6 6 6 6 7 7 6 6 6 6 6 6 7 6 7 6 6 5 5 5 4 4 4 5 2 2 1 3 2 3 2 3 5 5 3 3 5 3 4 3 3 4 4 4 4 4 4 5 5 6 5 5 5 5 5 5 2 3 4 4 3 3 3 3 3 4 4 3
9 9 9 8 8 8 8 8 8 8 8 8 7 7 6 7 7 6 6 7 7 6 6 6 6 6 6 6 6 6 7 7 7 7 8 9 8 8 6 5 4 4 2 1 1 1 2 4 6 4 6 6 4 4 4 2 3 3 3 4 4 4 4 4 4 3 3 4 3 2 4 5 5 5 2 3 2 1 1 1 2 2 1 3 4 4 4
8 8 7 7 7 7 7 7 7 7 8 7 7 7 7 6 6 6 6 6 6 6 7 7 6 6 7 7 6 6 6 6 4 4 4 5 7 8 6 6 5 5 6 4 3 6 7 6 5 9 12 9 6 2 2 2 4 4 3 4 4 4 3 3 3 3 5 4 4 4 4 1 2 3 2 3 2 2 2 1 1 0 1 1 2 4 5
7 7 8 8 8 7 6 6 6 6 7 7 7 7 7 7 7 7 6 6 6 6 6 6 7 7 6 7 7 7 6 6 6 5 5 5 5 5 4 4 4 4 5 7 4 6 5 5 8 9 6 5 2 6 4 3 4 3 3 2 2 3 3 3 3 4 3 3 2 2 3 3 3 3 2 2 3 2 1 2 2 1 1 3 3 3 4
7 7 7 8 8 7 5 4 5 5 5 6 7 7 6 5 5 6 6 6 6 7 6 7 7 7 8 7 6 6 6 6 6 6 6 6 6 5 5 6 5 6 5 6 3 6 5 8 8 7 4 3 5 5 2 1 1 4 1 2 2 2 3 3 4 3 4 4 4 3 4 3 3 3 3 2 3 1 2 4 5 4 4 3 3 3 3
6 6 7 6 6 5 3 4 6 5 5 6 6 6 5 6 6 5 4 3 3 5 6 7 7 7 6 5 6 8 7 5 6 6 5 4 4 5 4 3 4 4 4 4 6 4 4 6 6 4 1 2 7 5 2 2 2 2 3 2 3 3 3 3 4 3 4 4 3 1 2 1 1 1 4 2 1 2 4 6 6 5 4 3 4 4 5
5 5 5 5 4 3 3 4 5 5 5 5 5 4 5 4 5 4 4 5 4 0 3 5 4 4 4 6 4 8 7 8 7 7 7 5 4 4 5 5 6 7 4 1 3 6 9 9 7 4 3 3 5 3 2 2 3 2 2 2 2 3 3 3 4 3 3 3 3 3 4 4 3 3 5 6 5 5 4 5 6 7 5 4 5 4 3
3 4 3 3 4 3 2 4 5 5 5 5 5 4 4 3 4 3 3 4 3 3 3 5 3 2 4 5 6 8 7 5 5 7 6 6 7 7 4 6 5 2 4 3 3 2 7 7 7 6 4 5 5 4 4 3 6 4 5 4 5 4 4 3 4 5 4 4 4 5 4 6 6 6 6 5 5 5 5 6 6 6 5 3 2 3 5
3 3 3 4 5 7 9 7 6 6 5 4 5 4 5 6 5 6 6 8 9 6 6 6 6 5 7 6 6 6 6 6 5 7 8 7 7 6 7 7 5 2 1 4 4 2 6 7 7 6 6 6 6 5 5 5 5 5 4 4 5 5 4 4 6 8 4 5 6 6 6 6 6 4 5 6 6 6 6 6 7 4 8 5 8 7 7
0 1 4 4 5 5 5 6 6 6 6 6 6 4 5 5 5 4 5 6 6 6 6 4 5 5 5 6 6 6 7 7 7 8 7 6 7 8 7 6 6 5 4 5 6 5 4 5 5 6 7 7 7 7 6 6 6 6 6 6 5 6 6 5 6 6 5 6 6 6 6 6 6 6 6 6 6 5 6 5 6 7 6 7 6 5 6
4 6 3 1 2 2 4 6 4 4 5 5 5 5 5 5 6 5 4 6 6 6 6 6 5 6 7 6 6 6 7 7 7 6 7 6 8 8 8 10 8 7 6 6 6 6 6 4 5 7 7 6 6 7 6 6 6 7 7 6 6 6 6 7 6 6 7 7 7 6 7 8 7 6 4 4 5 7 6 6 7 7 6 5 6 7 6
Wind_Direction
225 243 254 237 228 236 245 219 219 223 223 232 227 226 231 226 229 240 228 222 229 235 242 247 239 221 212 209 218 237 236 227 222 222 183 184 185 183 186 190 193 193 192 187 184 183 182 181 183 186 188 191 193 191 193 193 195 194 186 188 192 193 188 190 188 190 190 190 189 186 185 189 195 195 198 203 204 202 201 205 201 194 188 184 180 181 182
220 224 237 246 250 239 231 239 229 224 228 227 236 238 230 231 238 240 241 236 233 228 234 237 245 254 241 213 214 226 226 221 239 244 223 211 209 189 190 191 191 193 193 185 182 181 182 183 183 185 186 187 189 187 189 191 195 192 181 185 187 190 189 187 185 186 186 183 181 180 185 194 197 191 195 199 202 204 199 201 199 191 189 189 186 181 181
241 232 228 234 239 245 247 235 232 235 223 224 227 235 239 238 237 240 240 240 242 240 235 234 231 243 253 250 209 215 221 225 226 230 241 247 240 218 202 178 191 188 191 189 183 182 185 186 185 184 183 185 185 187 188 189 191 190 184 179 183 185 185 184 182 179 177 178 180 182 187 192 195 194 197 200 197 182 182 190 194 189 192 191 187 180 179
241 238 245 241 238 237 241 242 242 231 235 234 225 222 227 235 236 236 241 241 236 231 240 235 232 236 238 247 251 214 213 225 221 233 245 247 241 213 218 223 192 185 186 190 190 187 187 187 185 183 181 182 184 187 185 188 187 187 182 177 181 181 181 178 177 173 173 173 175 179 180 186 192 192 193 192 187 181 185 191 192 191 193 188 187 180 183
234 230 235 239 242 244 243 237 233 241 239 232 241 236 229 230 236 237 233 240 246 242 233 240 228 226 238 242 240 248 242 233 232 226 238 251 255 252 215 201 183 191 191 193 195 192 186 186 185 186 180 179 182 184 182 183 182 185 182 177 174 178 177 175 172 170 169 170 173 176 181 184 187 189 190 180 180 181 187 189 191 187 184 184 183 183 184
232 231 234 241 245 234 233 238 239 236 241 245 236 233 227 226 221 235 241 243 237 235 237 238 235 229 227 234 243 241 245 255 252 247 234 239 249 248 245 214 184 194 194 199 198 194 188 187 186 181 181 180 178 180 177 178 181 184 176 170 173 176 175 174 168 168 170 174 176 177 178 180 188 194 196 192 189 189 190 190 191 187 187 185 181 182 184
231 229 233 231 232 240 241 236 242 244 249 252 259 253 236 235 237 235 231 232 239 238 233 234 238 241 240 235 241 244 236 239 247 241 235 226 234 247 250 234 207 187 193 198 193 191 190 184 180 179 180 180 176 179 177 178 177 176 171 171 171 172 174 173 170 169 174 178 179 183 180 188 189 199 202 201 195 190 193 196 192 187 189 188 185 183 181
230 230 216 233 232 256 261 256 244 237 239 244 246 253 260 246 230 239 244 237 227 233 238 236 233 233 235 241 241 242 245 244 240 238 233 227 225 233 241 238 117 205 197 195 192 189 187 178 176 180 178 177 175 177 175 172 174 173 171 171 169 171 174 175 174 174 175 178 178 184 195 194 194 203 211 209 205 201 200 196 193 191 193 194 186 187 187
227 224 233 241 281 261 240 245 244 247 256 257 263 280 266 264 250 237 239 247 244 233 228 233 237 230 230 235 233 238 239 232 239 244 235 229 230 238 231 190 208 208 196 194 189 177 183 182 174 179 175 173 173 171 170 169 169 171 172 171 171 170 172 175 175 173 174 174 179 181 189 190 195 199 201 214 217 215 209 201 193 194 193 193 192 190 188
217 233 230 237 237 243 233 287 54 333 346 331 332 309 269 274 291 267 245 239 248 256 251 238 227 232 243 239 237 231 235 234 231 235 238 229 231 232 229 185 187 190 189 188 175 179 180 184 172 171 171 168 168 167 166 164 167 169 170 173 172 170 172 172 172 171 173 174 175 180 180 190 186 196 197 203 213 209 216 215 208 203 200 197 191 190 190
210 224 237 227 235 236 73 56 324 20 352 320 345 297 260 254 264 270 267 255 238 236 245 244 237 236 235 237 240 231 231 237 235 232 226 230 227 225 214 182 179 179 176 180 172 178 178 180 170 167 170 164 163 164 165 165 167 167 170 170 171 169 170 168 168 168 168 168 170 174 180 186 194 188 191 196 204 202 211 219 224 218 218 215 202 194 196
218 223 225 234 231 234 154 142 208 279 258 46 321 241 245 347 344 328 321 305 310 294 252 240 238 231 236 237 239 238 239 237 239 236 228 224 228 221 191 183 173 168 162 169 168 178 178 177 169 165 166 161 159 159 162 163 165 166 167 165 167 166 164 161 160 162 163 162 167 168 176 183 189 187 185 197 200 205 210 211 220 221 213 218 198 181 179
215 218 233 243 237 98 144 147 188 228 297 265 227 237 345 347 321 329 314 311 300 307 314 265 240 231 243 248 244 250 260 245 231 221 209 207 210 202 182 172 157 157 165 169 173 177 173 164 164 162 162 155 151 156 156 159 159 158 157 156 159 157 157 156 155 156 154 158 162 165 170 178 184 187 187 194 199 197 205 206 211 209 206 225 218 207 205
217 212 228 234 251 163 150 107 261 113 202 229 246 43 315 298 324 318 322 312 308 307 302 304 267 246 237 234 235 229 249 310 62 112 153 172 182 178 174 139 149 156 162 162 168 166 156 161 163 158 148 141 143 145 148 145 149 146 143 145 148 148 148 147 145 148 149 155 163 163 170 179 179 178 183 192 194 191 194 192 193 191 211 225 227 220 217
222 220 224 227 233 147 193 144 221 176 251 337 10 335 320 311 296 315 318 315 310 302 291 294 304 281 250 230 222 223 226 205 164 163 157 161 155 131 124 137 147 153 150 159 168 158 159 159 151 142 140 134 133 134 134 130 125 127 132 135 137 139 140 140 143 147 146 148 157 159 170 173 182 182 173 183 170 160 165 170 191 201 209 216 219 219 209
220 216 221 233 269 127 180 211 242 108 338 345 336 332 298 313 319 311 307 297 315 307 295 287 288 296 304 291 176 190 181 171 162 148 133 134 128 142 150 146 153 156 151 149 139 145 142 134 138 136 127 123 121 116 113 113 118 120 123 126 129 131 133 132 136 142 142 153 156 162 165 175 178 177 180 177 161 155 153 183 198 201 204 209 217 216 216
222 241 217 93 117 121 114 97 95 100 57 77 327 276 297 316 319 318 303 308 295 284 278 273 276 239 225 57 351 206 169 155 146 137 136 138 151 154 151 142 138 139 139 140 137 132 137 134 127 119 115 114 112 111 114 118 119 123 122 124 124 128 133 137 146 147 148 156 159 169 173 176 158 166 168 167 160 165 157 186 200 207 207 204 205 210 209
100 81 77 112 88 103 108 83 66 66 71 72 33 13 356 28 348 350 341 326 316 290 305 259 182 157 86 85 222 219 188 151 133 135 138 137 132 131 129 130 133 132 130 126 121 115 107 104 106 110 114 116 117 121 126 126 128 127 128 128 129 126 123 124 144 157 155 155 157 164 159 156 161 163 168 171 167 162 178 189 202 211 216 213 218 215 200
221 135 73 121 120 102 94 82 76 73 70 81 89 88 59 42 38 34 46 30 37 50 234 189 165 182 182 172 158 108 92 95 97 102 105 105 107 112 114 114 116 116 113 107 104 104 102 101 104 105 105 104 110 121 127 133 134 132 129 126 125 130 138 148 156 164 157 154 156 152 144 142 157 166 158 152 149 176 191 201 205 212 210 207 207 206 189
214 121 111 83 83 77 79 85 88 79 69 64 73 94 81 47 39 36 49 31 39 53 71 69 80 77 83 95 101 99 88 84 81 84 85 91 98 99 102 107 106 107 107 106 102 99 98 100 101 105 109 111 114 118 124 125 125 128 134 139 143 145 144 142 150 155 159 129 154 153 150 163 166 162 159 166 165 180 196 207 216 212 220 222 210 187 181
161 131 188 127 100 85 80 78 70 64 69 67 53 41 56 88 73 50 58 71 68 55 50 60 82 92 93 95 98 89 79 72 70 69 72 74 75 79 86 90 95 98 102 103 104 105 109 114 114 116 118 122 128 133 134 131 136 134 132 142 141 138 138 141 137 140 148 162 166 143 135 77 50 34 20 135 179 134 45 26 13 345 248 199 184 168 154
282 198 161 152 174 120 74 58 66 77 75 73 66 61 52 46 62 76 69 64 62 64 71 75 76 81 83 76 69 67 66 67 70 76 80 80 79 79 79 82 84 85 88 93 94 94 95 98 103 107 115 126 135 135 128 132 133 130 139 142 142 140 142 142 135 144 158 169 147 152 150 132 107 86 61 57 29 57 87 45 49 41 36 63 65 165 142
218 86 88 63 81 87 70 47 28 53 69 69 66 58 53 47 42 45 50 57 55 52 49 48 58 59 59 60 65 68 63 57 59 69 75 79 82 82 81 82 81 82 83 85 88 90 93 95 99 103 105 106 103 110 120 126 132 137 147 147 145 137 140 142 140 152 160 157 154 164 153 162 153 133 124 67 51 48 63 58 47 46 51 48 40 37 142
118 103 93 80 86 92 80 54 42 41 53 69 66 55 48 46 42 40 43 41 43 42 44 44 41 46 51 54 55 57 57 55 54 53 56 66 71 73 72 72 73 75 76 77 81 85 90 93 94 94 94 95 101 111 117 124 131 141 146 150 143 143 152 119 119 159 144 148 157 148 147 145 155 168 153 122 82 44 43 60 56 50 43 42 44 54 56
81 87 86 87 89 87 79 62 50 42 41 58 61 51 40 35 37 39 37 37 37 37 35 33 34 33 40 45 47 48 48 46 46 56 62 61 60 63 67 68 68 70 73 76 79 82 85 89 91 93 95 94 96 102 112 123 138 142 157 158 150 158 126 130 154 156 145 153 158 149 145 150 156 161 169 161 120 108 49 56 70 67 55 45 46 49 62
121 103 112 112 104 97 95 78 51 38 32 39 54 48 41 33 26 36 41 40 40 35 34 26 23 23 28 36 41 40 41 41 34 34 45 50 61 64 64 67 74 79 81 81 82 86 93 97 101 101 103 106 106 117 125 132 140 151 148 129 123 118 137 156 155 155 149 150 150 142 147 152 150 160 173 169 151 141 138 140 105 79 66 55 49 62 61
32 118 135 108 78 60 51 54 62 58 53 41 44 46 36 33 30 31 33 36 41 43 36 29 24 16 20 23 29 35 37 34 36 37 40 45 48 49 57 67 69 74 77 78 78 80 84 87 91 94 97 101 112 121 126 133 140 142 134 124 120 129 141 146 146 144 144 147 142 140 145 151 153 161 159 169 172 174 177 170 165 150 147 91 45 30 55
38 27 42 92 92 84 81 74 78 72 67 60 51 43 30 27 28 29 28 28 30 35 40 35 28 19 19 20 22 25 26 32 33 34 32 34 41 45 43 44 53 61 70 75 78 79 85 89 94 95 95 104 112 121 128 136 133 129 132 132 130 133 134 138 136 133 131 135 132 140 143 148 159 158 159 166 172 173 173 172 161 142 131 100 87 68 69
43 42 48 73 89 96 101 98 90 91 93 87 75 72 60 46 33 30 28 23 24 29 31 36 36 31 28 27 21 21 19 20 24 26 32 29 25 33 41 44 48 54 62 76 83 86 88 90 98 100 105 111 120 128 132 134 137 138 141 142 136 135 138 133 131 130 126 125 135 130 134 145 154 155 157 160 172 180 182 174 156 139 123 123 123 113 104
46 46 67 71 61 56 60 68 70 68 74 91 103 107 103 92 60 36 28 13 16 28 24 20 27 30 23 25 27 22 17 6 9 16 21 15 22 19 26 28 59 62 69 71 75 82 88 91 95 105 115 127 127 132 133 131 128 146 140 133 135 137 137 128 123 119 127 126 109 107 140 146 149 160 157 163 172 175 168 157 147 135 141 148 147 139 135
59 57 58 57 53 51 55 58 59 61 65 71 75 77 82 93 112 110 68 10 27 21 10 11 18 18 16 10 4 11 13 356 347 353 12 14 9 5 359 2 43 82 67 83 90 97 103 113 123 132 160 149 143 142 133 132 133 127 112 95 80 72 75 88 122 137 132 128 138 158 152 161 158 168 164 164 169 161 166 152 147 147 144 151 155 149 141
80 66 60 53 49 55 57 53 60 58 53 51 54 58 59 68 74 87 106 114 105 52 7 13 9 6 5 347 348 350 342 317 315 325 9 13 7 1 341 337 24 38 133 136 143 160 139 129 113 96 98 117 130 136 137 133 139 137 131 128 121 125 109 110 146 130 140 145 160 163 163 169 162 161 150 160 164 158 158 156 161 151 154 157 161 156 151
96 87 63 50 44 41 46 42 43 51 48 46 43 39 43 46 53 63 65 65 69 81 72 22 6 354 211 250 261 265 252 268 263 224 74 20 17 302 280 308 151 184 166 186 171 178 159 149 137 132 129 137 135 133 143 149 157 152 143 145 136 127 142 175 97 140 145 155 162 156 156 154 138 159 158 160 166 167 167 164 152 150 151 163 163 152 158
69 70 76 70 70 63 42 24 28 43 51 47 40 36 40 43 45 49 45 45 52 37 28 15 22 336 342 6 239 242 228 243 193 83 58 31 288 255 204 164 153 129 139 154 161 159 152 127 127 142 151 153 148 154 143 146 138 113 127 145 137 144 158 147 146 163 156 165 132 120 127 139 141 143 142 149 151 154 153 151 153 161 169 170 162 149 149
82 86 76 62 53 46 36 40 39 38 43 49 46 46 41 38 34 39 37 40 43 39 30 38 26 344 22 12 335 343 72 62 26 32 45 333 307 241 141 114 114 126 96 71 60 74 91 138 169 152 169 154 152 162 167 164 149 145 136 129 135 140 141 147 155 139 130 120 127 137 139 141 132 123 141 151 154 148 159 173 167 181 187 183 132 122 148
78 68 75 64 51 48 48 36 32 24 22 25 37 43 42 42 37 25 29 42 30 19 23 34 49 24 33 9 355 41 29 68 128 142 137 156 169 157 129 132 129 120 103 92 78 86 83 66 5 341 168 163 181 150 146 166 141 134 140 138 133 131 135 133 127 132 133 142 144 136 121 109 123 141 150 154 157 178 187 184 194 205 196 207 129 137 143
106 105 95 89 82 71 66 55 55 54 46 40 36 34 37 37 35 33 35 41 37 29 28 30 40 31 39 41 36 62 95 101 94 50 53 60 92 120 123 127 127 127 129 120 109 91 84 76 351 340 131 101 70 65 30 47 125 127 135 132 123 125 126 131 132 132 123 118 113 115 125 138 152 138 153 157 168 190 223 211 181 223 235 217 131 145 152
91 93 86 74 75 81 78 71 85 106 99 79 74 62 35 48 58 43 38 32 35 36 36 39 40 38 52 52 59 54 121 128 105 97 82 101 128 126 120 125 135 142 109 92 98 102 101 92 343 130 101 97 110 98 49 31 81 110 114 121 135 137 136 133 134 139 141 132 128 136 154 158 152 166 185 189 199 192 213 214 197 206 207 205 184 178 181
92 86 87 93 91 87 92 88 78 70 70 74 69 67 54 34 52 69 62 41 27 8 32 51 51 53 43 37 42 16 14 22 51 67 74 67 82 86 84 74 55 61 98 125 113 96 78 18 102 102 112 111 93 89 61 42 40 104 113 122 131 133 135 142 140 135 125 135 157 145 147 149 162 167 182 187 175 181 172 54 312 206 195 188 189 192 203
89 97 101 99 99 102 93 79 71 69 66 63 65 54 51 45 49 58 63 69 45 31 29 38 55 59 61 65 62 79 74 46 35 41 68 96 113 112 111 92 83 86 77 62 86 84 48 16 76 100 107 114 128 124 102 85 121 141 144 165 175 176 176 162 152 152 144 161 131 165 169 174 187 181 171 157 169 185 166 169 202 222 242 233 227 222 207
81 83 87 94 96 98 94 95 90 81 65 58 60 58 50 56 39 42 45 43 48 42 43 38 36 44 40 44 57 57 52 49 43 56 38 65 111 125 99 87 88 88 80 62 53 79 34 29 128 136 118 142 123 131 136 181 193 173 191 177 187 169 170 178 165 153 159 154 161 189 163 157 135 154 151 183 175 178 166 164 166 182 224 243 231 222 224
79 81 79 76 76 81 85 88 91 88 85 78 71 63 57 47 45 47 41 41 44 46 49 48 44 35 39 46 49 50 51 50 51 53 44 43 31 44 69 58 41 53 51 104 126 181 172 157 141 196 142 111 117 143 187 188 183 178 190 180 170 167 161 160 162 165 166 165 184 178 152 168 166 167 149 194 184 203 211 216 239 239 236 213 222 247 269
78 76 75 75 79 81 83 80 77 75 75 68 66 68 62 60 59 52 50 42 36 34 37 46 53 45 40 48 53 50 45 42 38 48 58 54 48 54 62 70 58 61 16 4 43 144 93 76 55 64 93 111 119 126 262 223 158 178 158 155 174 159 172 184 176 168 166 173 187 182 157 213 182 243 196 184 262 359 79 214 258 279 296 306 312 307 283
77 78 76 74 71 74 76 73 75 77 76 73 71 69 67 63 56 59 60 54 54 42 33 30 32 53 54 42 44 53 49 48 42 48 62 80 78 65 56 67 81 64 32 48 44 45 45 67 90 86 84 99 124 212 258 157 150 134 162 172 182 190 169 177 161 174 190 186 196 191 190 254 299 157 163 183 168 164 136 333 342 27 354 317 280 273 276
71 69 74 74 72 68 68 68 65 70 81 88 69 58 62 60 55 48 44 54 66 72 58 48 33 25 44 62 51 45 46 48 45 31 45 52 54 62 48 83 82 77 46 0 58 77 84 86 79 80 80 55 21 297 270 207 188 175 167 170 211 225 180 193 190 207 235 187 198 169 133 184 199 135 201 96 62 352 299 199 176 304 305 282 292 303 295
75 75 71 69 65 62 61 77 86 80 71 69 78 71 52 60 70 62 44 41 47 47 54 64 57 44 26 34 55 65 69 52 46 54 51 39 38 41 37 21 37 36 4 331 65 89 85 88 85 73 57 332 306 271 267 275 335 89 163 209 151 145 164 180 163 191 159 182 166 168 164 205 149 187 166 178 142 210 84 51 346 308 274 277 292 320 330
70 67 64 60 58 50 65 85 76 61 56 62 54 49 54 48 36 47 63 71 75 88 71 48 50 45 38 45 56 32 18 46 71 41 42 72 59 52 55 55 52 37 342 4 36 57 111 125 100 97 19 355 295 294 268 196 180 213 169 218 169 169 200 159 175 188 168 200 164 176 87 318 233 164 142 129 294 257 246 232 219 211 242 261 274 253 240
56 61 59 58 64 61 26 42 61 70 61 49 47 47 54 64 67 35 21 19 11 359 115 80 56 60 47 12 40 66 44 2 10 38 356 23 41 71 42 13 16 29 351 301 104 106 97 110 124 147 157 234 254 254 273 265 215 177 247 192 219 203 195 175 191 203 194 182 162 202 204 208 225 287 300 282 258 259 265 280 296 309 322 328 281 262 297
53 52 50 69 81 82 44 71 61 41 35 50 51 31 345 327 96 28 67 102 342 309 86 76 64 7 133 102 49 57 41 25 5 22 350 8 0 347 44 122 161 206 303 332 319 96 130 142 162 165 196 235 245 249 247 237 267 236 198 202 215 204 223 219 205 211 218 230 201 207 238 248 242 232 229 241 252 256 260 272 283 293 282 239 229 315 314
54 37 41 45 33 25 24 27 43 18 7 41 39 20 348 347 27 31 6 2 350 345 18 34 41 33 21 11 39 39 33 4 21 38 357 2 3 2 351 339 5 63 313 324 315 144 177 183 180 188 208 229 239 249 258 262 255 270 276 230 238 251 232 239 342 360 309 266 254 241 222 229 251 263 285 290 305 318 311 300 287 125 100 289 266 282 287
294 93 78 54 40 51 42 33 23 8 3 356 341 13 359 358 17 24 19 359 344 11 8 9 16 9 22 23 2 6 20 6 0 33 5 4 24 341 347 344 330 315 308 300 295 298 167 189 216 207 216 239 251 247 244 245 249 244 244 259 247 234 239 196 207 229 231 244 263 268 277 278 268 257 258 261 256 248 262 263 262 266 258 277 285 244 222
43 61 329 51 69 26 61 58 25 1 346 329 350 358 355 348 329 342 29 17 355 2 358 339 343 22 18 17 0 342 5 349 332 4 340 355 1 335 357 338 331 326 320 313 310 303 295 245 224 216 230 249 252 257 250 237 243 250 252 239 250 259 260 263 250 231 213 204 213 239 259 262 263 266 251 229 236 252 252 258 268 276 273 263 263 265 267